Regional Weather Roundup
Issued by NWS Portland, ME

Home | Current Version | Previous Version | Text Only | Print | Product List | Glossary On
Versions: 1 2 3 4 5 6 7 8 9 10 11 12 13 14 15 16 17 18 19 20 21 22 23 24 25 26 27 28 29 30 31 32 33 34 35 36 37 38 39 40 41 42 43 44 45 46 47 48 49 50
000
ASUS41 KGYX 290410
RWRGYX
WEATHER ROUNDUP FOR MAINE AND NEW HAMPSHIRE
NATIONAL WEATHER SERVICE GRAY ME
1200 AM EDT MON AUG 29 2016

MEZ002-005-006-010-012-015-018-020-021-024-026-027-029-290500-
MAINE

CITY           SKY/WX    TMP DP  RH WIND       PRES   REMARKS
PORTLAND       PTCLDY    67  64  90 S5        30.11F
SANFORD        CLEAR     62  61  96 CALM      30.10F
BAR HARBOR     CLOUDY    64  60  87 S13       30.11F
WISCASSET      MOCLDY    69  65  86 S9        30.11F
ROCKLAND       CLOUDY    64  63  96 VRB5      30.10F
FRYEBURG       PTCLDY    65  60  84 CALM      30.09F
LEWISTONAUBURN PTCLDY    66  63  90 S6        30.10F
AUGUSTA        PTCLDY    66  64  93 VRB7G17   30.09F
WATERVILLE     MOCLDY    65  64  97 S6        30.05F
BANGOR         LGT RAIN  65  63  93 S10       30.09F
GREENVILLE       N/A     60  58  92 VRB3      30.05F
MILLINOCKET    CLOUDY    65  59  81 VRB5      30.05F
HOULTON        CLOUDY    64  60  87 S15G23    30.02F
PRESQUE ISLE   CLOUDY    64  60  87 S5        29.99F
FRENCHVILLE    CLOUDY    62  60  93 S6        29.96F
CARIBOU        CLOUDY    64  61  90 S7        29.97F
$$

NHZ002-005-008-009-011-012-014-290500-
NEW HAMPSHIRE

CITY           SKY/WX    TMP DP  RH WIND       PRES   REMARKS
PORTSMOUTH     PTCLDY    70  61  71 S8        30.09F
ROCHESTER      CLOUDY    65  60  84 CALM      30.10F
NASHUA         CLEAR     72  61  68 VRB5      30.12F
MANCHESTER     PTCLDY    73  58  59 S10       30.09F
CONCORD        PTCLDY    70  61  73 S7        30.10F
LACONIA        CLOUDY    71  61  70 S5        30.10F
PLYMOUTH       CLOUDY    69  62  79 CALM      30.08F
BERLIN         MOCLDY    64  61  90 SE3       30.07F
WHITEFIELD     PTCLDY    67  64  90 NE3       30.06F FOG
JAFFREY        CLEAR     70  60  70 S7        30.16
KEENE          PTCLDY    71  63  75 S5        30.13S
LEBANON        CLOUDY    77  64  64 SW3       30.08S
MT WASHINGTON  FOG       55  55 100 W39G52      N/A  VSB 0
$$

VTZ005-007-008-290500-
VERMONT

CITY           SKY/WX    TMP DP  RH WIND       PRES   REMARKS
ST JOHNSBURY     N/A     69  65  86 MISG      30.03F
MONTPELIER     MOCLDY    75  64  68 S7        30.10F
BURLINGTON     MOCLDY    77  63  61 S8        30.03S
$$

MAZ007-012-024-CTZ003-RIZ002-NYZ038-NYZ072-290500-
SOUTHERN NEW ENGLAND AND NY

CITY           SKY/WX    TMP DP  RH WIND       PRES   REMARKS
BOSTON         PTCLDY    71  64  78 SW20      30.14S
WORCESTER      CLEAR     66  60  81 SW13      30.18F
NANTUCKET      CLEAR     68  66  93 S10       30.17F
PROVIDENCE     PTCLDY    67  61  81 S3        30.17F
HARTFORD       PTCLDY    71  62  73 S8        30.16S
ALBANY         CLOUDY    78  65  63 S9        30.10S
NEW YORK CITY  PTCLDY    78  68  71 SW7       30.17R
$$

ANZ081-ANZ082-ANZ150-NHZ014-MEZ023>029-290500-
COASTAL MARINE OBSERVATIONS

STATION/POSITION TIME  TEMP    WIND        PRES    WAVE
                       AIR SEA DIR/SP/G            HT/PER
                 (UTC) (F)     (DEG/KT/KT) (MB)    (FT/S)
MOUNT DESERT ROC 0400   63     160/ 16/ 17 1020.0F
MATINICUS ROCK   0400   63     180/ 18/ 19 1019.3F
ISLE OF SHOALS   0400   68     200/ 19/ 20 1019.3F
JEFFREYS LEDGE   0308      67                N/A     4/ 4
CASHES LEDGE BUO 0350   69 68  180/ 17/ 21 1020.0F   3/ 4
GEORGES BANK BUO 0350   68 68              1021.6F   3/14
$$

.............KEY..............
   WCI - WIND CHILL
   TC  - TEMPERATURE IN CELSIUS
   VSB - VISIBILITY IN MILES
   HX  - HEAT INDEX
   FAIR- INDICATES FEW OR NO CLOUDS BELOW 12,000 FT, WITH NO
         SIGNIFICANT WEATHER AND/OR OBSTRUCTIONS TO VISIBILITY.





USA.gov is the U.S. government's official web portal to all federal, state and local government web resources and services.